User: anonymous   Login
Location: Unspecified
(0.0000°N, 0.0000°E)
Time: 13:42:40
(UTC+01:00)
Language:

Iridium 4 Rocket - Orbit

View from above orbital plane
View from above orbital plane
View from above satellite
View from above satellite

Ground track
Ground track

The orbit data is extracted from the following two-line orbital elements,

1 24797U 97020F   16345.22296793  .00000204  00000-0  38908-4 0  9994
2 24797  86.8973  62.5868 0224030 226.9590 150.3944 14.43932462 30671
Epoch (UTC): 10 December 2016 05:21:04
Eccentricity: 0.0224030
inclination: 86.8973°
perigee height: 586 km
apogee height: 905 km
right ascension of ascending node: 62.5868°
argument of perigee: 226.9590°
revolutions per day: 14.43932462
mean anomaly at epoch: 150.3944°
orbit number at epoch: 3067

The dashed part of the orbit path shows where the satellite is in the earth's shadow,  

DLR